Home > Weather > Paradise > Past weeks

Flag for U.S.A. Weather for the Past 2 Weeks in Paradise, California, U.S.A.

Now
68 °F

Partly sunny.


Feels Like: 68 °F
Forecast: 49 / 65 °F
Wind: 7 mph from Northwest

Location: Chico Municipal

Current Time: Feb 10, 2016 at 5:34:26 PM

Latest Report: Feb 10, 2016 at 2:47 PM


Visibility: 40 mi

Pressure: 30.23 "Hg (28.43 "Hg at 527m altitude)

Humidity: 49%

Dew point: 48 °F

Location of ParadiseLocation

Historic Weather in Paradise — Graph

°F

Paradise Temperature Yesterday

Maximum temperature yesterday: 68 °F (at 1:47 PM)
Minimum temperature yesterday: 45 °F (at 5:35 AM)
Average temperature yesterday: 57 °F

High & Low Weather Summary for the Past Weeks

 TemperatureHumidityPressure
High77 °F (Feb 8, 2:50 PM)100% (Jan 26, 11:55 PM)30.52 "Hg (Jan 26, 11:55 PM)
Low36 °F (Feb 1, 2:55 AM)32% (Feb 7, 10:15 PM)29.71 "Hg (Jan 31, 1:51 PM)
Average48 °F77%30.26 "Hg
* Reported Jan 26 2:47 PM — Feb 10 2:47 PM, Paradise, Weather by CustomWeather, © 2016

Note: Actual official high and low records may vary slightly from our data, if they occured in-between our weather recording intervals... More about our weather records

Advertising

Paradise Weather History for the Previous 24 Hours

 ConditionsComfort  
Time TempWeatherWind HumidityBarometerVisibility
2:47 PM
Wed, Feb 10
68 °FPartly sunny.7 mph49%30.23 "Hg40 mi
1:47 PM66 °FPartly sunny.7 mph52%30.24 "Hg40 mi
12:55 PM64 °FPartly sunny.7 mph60%30.25 "Hg40 mi
11:50 AM63 °FPartly sunny.7 mph64%30.29 "Hg40 mi
10:53 AM59 °FPartly sunny.6 mph68%30.31 "Hg40 mi
9:53 AM55 °FPartly sunny.6 mph72%30.31 "Hg10 mi
8:47 AM50 °FPartly sunny.7 mph82%30.30 "Hg80 mi
7:47 AM43 °FPartly sunny.7 mph93%30.29 "Hg80 mi
6:55 AM41 °FPartly cloudy.6 mph93%30.28 "Hg10 mi
5:35 AM45 °FClear.No wind87%30.26 "Hg10 mi
5:15 AM45 °FClear.No wind87%30.26 "Hg10 mi
4:55 AM46 °FClear.No wind82%30.25 "Hg10 mi
4:35 AM50 °FClear.3 mph71%30.24 "Hg10 mi
4:15 AM48 °FClear.6 mph82%30.24 "Hg10 mi
3:55 AM45 °FClear.8 mph93%30.25 "Hg10 mi
3:35 AM48 °FClear.No wind82%30.24 "Hg10 mi
3:15 AM48 °FClear.No wind82%30.23 "Hg10 mi
2:55 AM48 °FClear.No wind82%30.23 "Hg10 mi
2:35 AM50 °FClear.No wind76%30.22 "Hg10 mi
2:15 AM50 °FClear.No wind82%30.23 "Hg10 mi
1:55 AM50 °FClear.No wind82%30.23 "Hg10 mi
1:35 AM50 °FClear.No wind82%30.24 "Hg10 mi
1:15 AM50 °FClear.No wind82%30.24 "Hg10 mi
12:55 AM52 °FClear.No wind77%30.23 "Hg10 mi
12:35 AM54 °FClear.No wind72%30.22 "Hg10 mi
12:15 AM55 °FClear.7 mph67%30.23 "Hg10 mi
11:55 PM
Tue, Feb 9
54 °FClear.7 mph72%30.24 "Hg10 mi
11:35 PM54 °FClear.3 mph72%30.25 "Hg10 mi
11:15 PM55 °FClear.7 mph67%30.23 "Hg10 mi
10:55 PM55 °FClear.No wind67%30.23 "Hg10 mi
10:35 PM57 °FClear.7 mph59%30.21 "Hg10 mi
10:15 PM57 °FClear.8 mph63%30.21 "Hg10 mi
9:55 PM55 °FClear.6 mph67%30.21 "Hg10 mi
9:35 PM55 °FClear.3 mph67%30.21 "Hg10 mi
9:15 PM55 °FClear.No wind72%30.21 "Hg10 mi
8:55 PM55 °FClear.No wind72%30.21 "Hg10 mi
8:35 PM57 °FClear.No wind67%30.20 "Hg10 mi
8:15 PM57 °FClear.No wind72%30.19 "Hg10 mi
7:55 PM57 °FClear.No wind72%30.19 "Hg10 mi
7:35 PM59 °FClear.No wind63%30.18 "Hg10 mi
6:55 PM63 °FClear.7 mph56%30.18 "Hg10 mi
6:35 PM63 °FClear.7 mph56%30.19 "Hg10 mi
6:15 PM64 °FClear.No wind56%30.19 "Hg10 mi
Weather by CustomWeather, © 2016

See weather overviewHow to use our weather pages